Time,TemperatureF,DewpointF,PressureIn,WindDirection,WindDirectionDegrees,WindSpeedMPH,WindSpeedGustMPH,Humidity,HourlyPrecipIn,Conditions,Clouds,dailyrainin,SolarRadiationWatts/m^2,SoftwareType,DateUTC
2013-06-13 00:00:00,73.1,68.7,29.91,ENE,57,4.0,4.0,86,0.00,,---,0.00,0.00,VWS V14.01,2013-06-13 04:00:00,
2013-06-13 00:01:00,73.2,68.8,29.91,ENE,76,0.0,2.0,86,0.00,,---,0.00,0.00,VWS V14.01,2013-06-13 04:01:00,
2013-06-13 00:02:00,73.2,68.8,29.91,SSW,196,0.0,2.0,86,0.00,,---,0.00,0.00,VWS V14.01,2013-06-13 04:02:00,
2013-06-13 00:07:00,73.1,68.7,29.91,ENE,57,0.0,4.0,86,0.00,,---,0.00,0.00,VWS V14.01,2013-06-13 04:07:00,
2013-06-13 00:12:00,73.0,68.6,29.91,ENE,57,0.0,4.0,86,0.00,,---,0.00,0.00,VWS V14.01,2013-06-13 04:12:00,
2013-06-13 00:17:00,72.9,68.5,29.91,SE,135,0.0,4.0,86,0.00,,---,0.00,0.00,VWS V14.01,2013-06-13 04:17:00,
2013-06-13 00:22:00,72.9,68.5,29.91,SE,126,0.0,4.0,86,0.00,,---,0.00,0.00,VWS V14.01,2013-06-13 04:22:00,
2013-06-13 00:27:00,72.8,68.4,29.92,ESE,110,0.0,4.0,86,0.00,,---,0.00,0.00,VWS V14.01,2013-06-13 04:27:00,
2013-06-13 00:30:00,72.8,68.4,29.91,ESE,110,0.0,4.0,86,0.00,,---,0.00,0.00,VWS V14.01,2013-06-13 04:30:00,
2013-06-13 00:32:00,72.8,68.4,29.91,ESE,110,0.0,4.0,86,0.00,,---,0.00,0.00,VWS V14.01,2013-06-13 04:32:00,
2013-06-13 00:37:00,72.7,68.3,29.91,ESE,110,0.0,0.0,86,0.00,,---,0.00,0.00,VWS V14.01,2013-06-13 04:37:00,
2013-06-13 00:42:00,72.7,68.3,29.91,ESE,110,0.0,0.0,86,0.00,,---,0.00,0.00,VWS V14.01,2013-06-13 04:42:00,
2013-06-13 00:47:00,72.6,68.2,29.91,ESE,110,0.0,0.0,86,0.00,,---,0.00,0.00,VWS V14.01,2013-06-13 04:47:00,
2013-06-13 00:52:00,72.5,68.1,29.91,ESE,110,0.0,0.0,86,0.00,,---,0.00,0.00,VWS V14.01,2013-06-13 04:52:00,
2013-06-13 00:58:00,72.5,68.1,29.92,ESE,110,0.0,0.0,86,0.00,,---,0.00,0.00,VWS V14.01,2013-06-13 04:58:00,
2013-06-13 01:00:00,72.4,68.0,29.92,ESE,110,0.0,0.0,86,0.00,,---,0.00,0.00,VWS V14.01,2013-06-13 05:00:00,
2013-06-13 01:03:00,72.4,68.0,29.92,ESE,110,0.0,0.0,86,0.00,,---,0.00,0.00,VWS V14.01,2013-06-13 05:03:00,
2013-06-13 01:08:00,72.3,67.9,29.91,ESE,110,0.0,0.0,86,0.00,,---,0.00,0.00,VWS V14.01,2013-06-13 05:08:00,
2013-06-13 01:13:00,72.2,67.8,29.91,ESE,110,0.0,0.0,86,0.00,,---,0.00,0.00,VWS V14.01,2013-06-13 05:13:00,
2013-06-13 01:18:00,72.1,68.0,29.91,ESE,110,0.0,0.0,87,0.00,,---,0.00,0.00,VWS V14.01,2013-06-13 05:18:00,
2013-06-13 01:23:00,72.0,67.9,29.91,ESE,110,0.0,0.0,87,0.00,,---,0.00,0.00,VWS V14.01,2013-06-13 05:23:00,
2013-06-13 01:28:00,71.9,67.8,29.91,ESE,110,0.0,0.0,87,0.00,,---,0.00,0.00,VWS V14.01,2013-06-13 05:28:00,
2013-06-13 01:30:00,71.9,67.8,29.90,ESE,110,0.0,0.0,87,0.00,,---,0.00,0.00,VWS V14.01,2013-06-13 05:30:00,
2013-06-13 01:33:00,71.9,67.8,29.90,ESE,110,0.0,0.0,87,0.00,,---,0.00,0.00,VWS V14.01,2013-06-13 05:33:00,
2013-06-13 01:38:00,71.9,67.8,29.90,ESE,110,0.0,0.0,87,0.00,,---,0.00,0.00,VWS V14.01,2013-06-13 05:38:00,
2013-06-13 01:43:00,71.8,67.7,29.91,ESE,110,0.0,0.0,87,0.00,,---,0.00,0.00,VWS V14.01,2013-06-13 05:43:00,
2013-06-13 01:48:00,71.7,67.6,29.90,ESE,110,0.0,0.0,87,0.00,,---,0.00,0.00,VWS V14.01,2013-06-13 05:48:00,
2013-06-13 01:53:00,71.7,67.6,29.90,ESE,110,0.0,0.0,87,0.00,,---,0.00,0.00,VWS V14.01,2013-06-13 05:53:00,
2013-06-13 01:58:00,71.6,67.5,29.90,ESE,110,0.0,0.0,87,0.00,,---,0.00,0.00,VWS V14.01,2013-06-13 05:58:00,
2013-06-13 02:00:00,71.6,67.5,29.90,ESE,110,0.0,0.0,87,0.00,,---,0.00,0.00,VWS V14.01,2013-06-13 06:00:00,
2013-06-13 02:03:00,71.5,67.4,29.90,ESE,110,0.0,0.0,87,0.00,,---,0.00,0.00,VWS V14.01,2013-06-13 06:03:00,
2013-06-13 02:08:00,71.5,67.8,29.90,ESE,110,0.0,0.0,88,0.00,,---,0.00,0.00,VWS V14.01,2013-06-13 06:08:00,
2013-06-13 02:14:00,71.4,67.7,29.90,ESE,110,0.0,0.0,88,0.00,,---,0.00,0.00,VWS V14.01,2013-06-13 06:14:00,
2013-06-13 02:19:00,71.3,67.6,29.90,ESE,110,0.0,0.0,88,0.00,,---,0.00,0.00,VWS V14.01,2013-06-13 06:19:00,
2013-06-13 02:24:00,71.2,67.8,29.90,ESE,110,0.0,0.0,89,0.00,,---,0.00,0.00,VWS V14.01,2013-06-13 06:24:00,
2013-06-13 02:29:00,71.1,67.7,29.90,ESE,110,0.0,0.0,89,0.00,,---,0.00,0.00,VWS V14.01,2013-06-13 06:29:00,
2013-06-13 02:30:00,71.0,67.6,29.90,ESE,110,0.0,0.0,89,0.00,,---,0.00,0.00,VWS V14.01,2013-06-13 06:30:00,
2013-06-13 02:34:00,71.0,67.6,29.90,ESE,110,0.0,0.0,89,0.00,,---,0.00,0.00,VWS V14.01,2013-06-13 06:34:00,
2013-06-13 02:39:00,71.0,67.6,29.89,ESE,110,0.0,0.0,89,0.00,,---,0.00,0.00,VWS V14.01,2013-06-13 06:39:00,
2013-06-13 02:44:00,70.9,67.5,29.89,ESE,110,0.0,0.0,89,0.00,,---,0.00,0.00,VWS V14.01,2013-06-13 06:44:00,
2013-06-13 02:49:00,70.9,67.5,29.89,ESE,110,0.0,0.0,89,0.00,,---,0.00,0.00,VWS V14.01,2013-06-13 06:49:00,
2013-06-13 02:54:00,71.0,67.6,29.89,ESE,110,0.0,0.0,89,0.00,,---,0.00,0.00,VWS V14.01,2013-06-13 06:54:00,
2013-06-13 02:59:00,71.0,67.3,29.89,ESE,110,0.0,0.0,88,0.00,,---,0.00,0.00,VWS V14.01,2013-06-13 06:59:00,
2013-06-13 03:00:00,71.0,67.6,29.89,ESE,110,0.0,0.0,89,0.00,,---,0.00,0.00,VWS V14.01,2013-06-13 07:00:00,
2013-06-13 03:04:00,71.0,67.3,29.89,ESE,110,0.0,0.0,88,0.00,,---,0.00,0.00,VWS V14.01,2013-06-13 07:04:00,
2013-06-13 03:09:00,71.0,67.3,29.89,ESE,110,0.0,0.0,88,0.00,,---,0.00,0.00,VWS V14.01,2013-06-13 07:09:00,
2013-06-13 03:14:00,71.1,67.4,29.89,ESE,110,0.0,0.0,88,0.00,,---,0.00,0.00,VWS V14.01,2013-06-13 07:14:00,
2013-06-13 03:19:00,71.1,67.4,29.89,ESE,110,0.0,0.0,88,0.00,,---,0.00,0.00,VWS V14.01,2013-06-13 07:19:00,
2013-06-13 03:24:00,71.1,67.4,29.89,ESE,110,0.0,0.0,88,0.00,,---,0.00,0.00,VWS V14.01,2013-06-13 07:24:00,
2013-06-13 03:29:00,71.2,67.5,29.88,ESE,110,0.0,0.0,88,0.00,,---,0.00,0.00,VWS V14.01,2013-06-13 07:29:00,
2013-06-13 03:30:00,71.1,67.4,29.88,ESE,110,0.0,0.0,88,0.00,,---,0.00,0.00,VWS V14.01,2013-06-13 07:30:00,
2013-06-13 03:34:00,71.1,67.4,29.88,ESE,110,0.0,0.0,88,0.00,,---,0.00,0.00,VWS V14.01,2013-06-13 07:34:00,
2013-06-13 03:39:00,71.0,67.3,29.88,ESE,110,0.0,0.0,88,0.00,,---,0.00,0.00,VWS V14.01,2013-06-13 07:39:00,
2013-06-13 03:44:00,71.0,67.3,29.88,ESE,110,0.0,0.0,88,0.00,,---,0.00,0.00,VWS V14.01,2013-06-13 07:44:00,
2013-06-13 03:49:00,70.9,67.2,29.88,ESE,110,0.0,0.0,88,0.00,,---,0.00,0.00,VWS V14.01,2013-06-13 07:49:00,
2013-06-13 03:54:00,70.9,67.2,29.87,ESE,110,0.0,0.0,88,0.00,,---,0.00,0.00,VWS V14.01,2013-06-13 07:54:00,
2013-06-13 03:59:00,70.8,66.7,29.87,ESE,110,0.0,0.0,87,0.00,,---,0.00,0.00,VWS V14.01,2013-06-13 07:59:00,
2013-06-13 04:00:00,70.7,66.7,29.87,ESE,110,0.0,0.0,87,0.00,,---,0.00,0.00,VWS V14.01,2013-06-13 08:00:00,
2013-06-13 04:04:00,70.7,66.3,29.87,ESE,110,0.0,0.0,86,0.00,,---,0.00,0.00,VWS V14.01,2013-06-13 08:04:00,
2013-06-13 04:09:00,70.7,66.3,29.86,SE,133,0.0,0.0,86,0.00,,---,0.00,0.00,VWS V14.01,2013-06-13 08:09:00,
2013-06-13 04:14:00,70.9,66.2,29.86,SSW,199,0.0,1.0,85,0.00,,---,0.00,0.00,VWS V14.01,2013-06-13 08:14:00,
2013-06-13 04:19:00,71.1,66.0,29.85,SSW,199,0.0,1.0,84,0.00,,---,0.00,0.00,VWS V14.01,2013-06-13 08:19:00,
2013-06-13 04:24:00,71.3,65.9,29.85,SSW,199,0.0,1.0,83,0.00,,---,0.00,0.00,VWS V14.01,2013-06-13 08:24:00,
2013-06-13 04:29:00,71.4,66.0,29.85,SSW,199,0.0,1.0,83,0.00,,---,0.00,0.00,VWS V14.01,2013-06-13 08:29:00,
2013-06-13 04:30:00,71.5,65.7,29.85,SSW,199,0.0,3.0,82,0.00,,---,0.00,0.00,VWS V14.01,2013-06-13 08:30:00,
2013-06-13 04:34:00,71.5,65.7,29.85,SSW,212,0.0,0.0,82,0.00,,---,0.00,0.00,VWS V14.01,2013-06-13 08:34:00,
2013-06-13 04:39:00,71.6,65.8,29.85,WSW,248,0.0,3.0,82,0.00,,---,0.00,0.00,VWS V14.01,2013-06-13 08:39:00,
2013-06-13 04:44:00,71.7,65.6,29.85,WSW,249,0.0,3.0,81,0.00,,---,0.00,0.00,VWS V14.01,2013-06-13 08:44:00,
2013-06-13 04:49:00,72.0,65.9,29.85,WSW,250,0.0,3.0,81,0.00,,---,0.00,0.00,VWS V14.01,2013-06-13 08:49:00,
2013-06-13 04:54:00,72.1,65.6,29.84,West,280,0.0,3.0,80,0.00,,---,0.00,0.00,VWS V14.01,2013-06-13 08:54:00,
2013-06-13 04:59:00,72.2,65.7,29.84,WSW,247,0.0,3.0,80,0.00,,---,0.00,0.00,VWS V14.01,2013-06-13 08:59:00,
2013-06-13 05:00:00,72.3,65.8,29.84,WNW,292,0.0,5.0,80,0.00,,---,0.00,0.00,VWS V14.01,2013-06-13 09:00:00,
2013-06-13 05:04:00,72.4,65.9,29.84,SW,231,0.0,3.0,80,0.00,,---,0.00,0.00,VWS V14.01,2013-06-13 09:04:00,
2013-06-13 05:09:00,72.5,65.6,29.84,SW,227,0.0,3.0,79,0.00,,---,0.00,0.00,VWS V14.01,2013-06-13 09:09:00,
2013-06-13 05:14:00,72.6,65.7,29.84,SW,227,0.0,3.0,79,0.00,,---,0.00,0.00,VWS V14.01,2013-06-13 09:14:00,
2013-06-13 05:19:00,72.7,65.8,29.83,SW,227,0.0,3.0,79,0.00,,---,0.00,0.00,VWS V14.01,2013-06-13 09:19:00,
2013-06-13 05:24:00,72.7,65.8,29.83,SW,227,0.0,3.0,79,0.00,,---,0.00,0.00,VWS V14.01,2013-06-13 09:24:00,
2013-06-13 05:29:00,72.6,65.7,29.83,SW,227,0.0,3.0,79,0.00,,---,0.00,0.00,VWS V14.01,2013-06-13 09:29:00,
2013-06-13 05:30:00,72.6,65.7,29.83,SW,227,0.0,3.0,79,0.00,,---,0.00,0.00,VWS V14.01,2013-06-13 09:30:00,
2013-06-13 05:34:00,72.5,65.6,29.83,WNW,282,0.0,0.0,79,0.00,,---,0.00,0.00,VWS V14.01,2013-06-13 09:34:00,
2013-06-13 05:39:00,72.4,65.5,29.83,WNW,283,0.0,2.0,79,0.00,,---,0.00,0.00,VWS V14.01,2013-06-13 09:39:00,
2013-06-13 05:44:00,72.4,65.5,29.83,West,271,1.0,4.0,79,0.00,,---,0.00,0.00,VWS V14.01,2013-06-13 09:44:00,
2013-06-13 05:49:00,72.4,65.5,29.82,West,281,0.0,6.0,79,0.00,,---,0.00,0.00,VWS V14.01,2013-06-13 09:49:00,
2013-06-13 05:54:00,72.5,65.6,29.83,West,267,0.0,6.0,79,0.00,,---,0.00,0.00,VWS V14.01,2013-06-13 09:54:00,
2013-06-13 05:59:00,72.6,65.7,29.82,WSW,243,0.0,6.0,79,0.00,,---,0.00,0.00,VWS V14.01,2013-06-13 09:59:00,
2013-06-13 06:00:00,72.7,65.8,29.82,WSW,246,0.0,6.0,79,0.00,,---,0.00,0.00,VWS V14.01,2013-06-13 10:00:00,
2013-06-13 06:04:00,72.7,65.8,29.82,WSW,250,0.0,1.0,79,0.00,,---,0.00,0.00,VWS V14.01,2013-06-13 10:04:00,
2013-06-13 06:09:00,72.7,65.8,29.82,West,276,0.0,2.0,79,0.00,,---,0.00,0.00,VWS V14.01,2013-06-13 10:09:00,
2013-06-13 06:14:00,72.7,65.8,29.82,NW,308,0.0,3.0,79,0.00,,---,0.00,0.00,VWS V14.01,2013-06-13 10:14:00,
2013-06-13 06:19:00,72.7,65.8,29.81,NW,308,0.0,3.0,79,0.00,,---,0.00,5.00,VWS V14.01,2013-06-13 10:19:00,
2013-06-13 06:24:00,72.6,65.7,29.82,SW,227,0.0,3.0,79,0.00,,---,0.00,5.00,VWS V14.01,2013-06-13 10:24:00,
2013-06-13 06:29:00,72.6,65.7,29.81,SW,227,0.0,3.0,79,0.00,,---,0.00,7.00,VWS V14.01,2013-06-13 10:29:00,
2013-06-13 06:30:00,72.5,65.6,29.81,SW,221,0.0,3.0,79,0.00,,---,0.00,9.00,VWS V14.01,2013-06-13 10:30:00,
2013-06-13 06:34:00,72.5,65.6,29.81,SW,221,0.0,0.0,79,0.00,,---,0.00,9.00,VWS V14.01,2013-06-13 10:34:00,
2013-06-13 06:39:00,72.4,65.5,29.81,North,10,0.0,1.0,79,0.00,,---,0.00,12.00,VWS V14.01,2013-06-13 10:39:00,
2013-06-13 06:44:00,72.3,65.4,29.80,WSW,247,0.0,3.0,79,0.00,,---,0.00,14.00,VWS V14.01,2013-06-13 10:44:00,
2013-06-13 06:49:00,72.2,65.7,29.80,West,261,0.0,3.0,80,0.00,,---,0.00,16.00,VWS V14.01,2013-06-13 10:49:00,
2013-06-13 06:54:00,72.1,65.6,29.80,West,261,0.0,4.0,80,0.00,,---,0.00,18.00,VWS V14.01,2013-06-13 10:54:00,
2013-06-13 06:59:00,72.1,65.6,29.80,West,261,0.0,4.0,80,0.00,,---,0.00,21.00,VWS V14.01,2013-06-13 10:59:00,
2013-06-13 07:00:00,72.1,65.6,29.80,West,261,0.0,4.0,80,0.00,,---,0.00,25.00,VWS V14.01,2013-06-13 11:00:00,
2013-06-13 07:05:00,72.1,65.6,29.80,West,261,2.0,2.0,80,0.00,,---,0.00,26.00,VWS V14.01,2013-06-13 11:05:00,
2013-06-13 07:10:00,72.1,65.6,29.80,West,261,0.0,3.0,80,0.00,,---,0.00,30.00,VWS V14.01,2013-06-13 11:10:00,
2013-06-13 07:15:00,72.1,65.6,29.80,West,261,0.0,3.0,80,0.00,,---,0.00,35.00,VWS V14.01,2013-06-13 11:15:00,
2013-06-13 07:20:00,72.1,65.6,29.80,West,261,0.0,3.0,80,0.00,,---,0.00,39.00,VWS V14.01,2013-06-13 11:20:00,
2013-06-13 07:25:00,72.0,65.9,29.80,West,261,0.0,3.0,81,0.00,,---,0.00,39.00,VWS V14.01,2013-06-13 11:25:00,
2013-06-13 07:30:00,72.0,65.9,29.79,West,261,0.0,3.0,81,0.00,,---,0.00,39.00,VWS V14.01,2013-06-13 11:30:00,
2013-06-13 07:35:00,71.9,65.8,29.79,West,261,0.0,0.0,81,0.00,,---,0.00,39.00,VWS V14.01,2013-06-13 11:35:00,
2013-06-13 07:40:00,71.8,65.7,29.79,West,261,0.0,1.0,81,0.00,,---,0.00,42.00,VWS V14.01,2013-06-13 11:40:00,
2013-06-13 07:45:00,71.7,65.6,29.79,West,261,0.0,1.0,81,0.00,,---,0.00,47.00,VWS V14.01,2013-06-13 11:45:00,
2013-06-13 07:50:00,71.6,65.5,29.79,West,271,0.0,1.0,81,0.00,,---,0.00,51.00,VWS V14.01,2013-06-13 11:50:00,
2013-06-13 07:55:00,71.6,65.1,29.79,WNW,290,0.0,3.0,80,0.00,,---,0.00,53.00,VWS V14.01,2013-06-13 11:55:00,
2013-06-13 08:00:00,71.9,65.4,29.79,West,279,0.0,4.0,80,0.00,,---,0.00,56.00,VWS V14.01,2013-06-13 12:00:00,
2013-06-13 08:05:00,72.0,65.1,29.79,WNW,287,0.0,1.0,79,0.00,,---,0.00,58.00,VWS V14.01,2013-06-13 12:05:00,
2013-06-13 08:10:00,72.3,65.1,29.80,West,264,0.0,8.0,78,0.00,,---,0.00,60.00,VWS V14.01,2013-06-13 12:10:00,
2013-06-13 08:15:00,72.6,65.3,29.79,West,264,0.0,8.0,78,0.00,,---,0.00,62.00,VWS V14.01,2013-06-13 12:15:00,
2013-06-13 08:20:00,72.7,65.4,29.79,West,265,0.0,8.0,78,0.00,,---,0.00,62.00,VWS V14.01,2013-06-13 12:20:00,
2013-06-13 08:25:00,72.9,65.7,29.79,West,265,0.0,8.0,78,0.00,,---,0.00,63.00,VWS V14.01,2013-06-13 12:25:00,
2013-06-13 08:30:00,73.0,65.7,29.79,West,265,0.0,8.0,78,0.00,,---,0.00,69.00,VWS V14.01,2013-06-13 12:30:00,
2013-06-13 08:35:00,73.1,65.8,29.79,WSW,257,2.0,4.0,78,0.00,,---,0.00,74.00,VWS V14.01,2013-06-13 12:35:00,
2013-06-13 08:40:00,73.4,66.1,29.79,SW,236,0.0,5.0,78,0.00,,---,0.00,84.00,VWS V14.01,2013-06-13 12:40:00,
2013-06-13 08:45:00,73.7,66.1,29.79,WNW,300,2.0,6.0,77,0.00,,---,0.00,90.00,VWS V14.01,2013-06-13 12:45:00,
2013-06-13 08:50:00,73.9,66.2,29.78,West,279,0.0,6.0,77,0.00,,---,0.00,90.00,VWS V14.01,2013-06-13 12:50:00,
2013-06-13 08:55:00,74.2,66.2,29.78,WSW,250,0.0,6.0,76,0.00,,---,0.00,91.00,VWS V14.01,2013-06-13 12:55:00,
2013-06-13 09:00:00,74.5,66.4,29.78,West,272,0.0,6.0,76,0.00,,---,0.00,100.00,VWS V14.01,2013-06-13 13:00:00,
2013-06-13 09:05:00,74.7,65.9,29.78,WNW,300,7.0,7.0,74,0.00,,---,0.00,113.00,VWS V14.01,2013-06-13 13:05:00,
2013-06-13 09:10:00,74.9,66.1,29.78,WNW,293,0.0,11.0,74,0.00,,---,0.00,167.00,VWS V14.01,2013-06-13 13:10:00,
2013-06-13 09:15:00,75.2,66.3,29.78,West,270,4.0,11.0,74,0.00,,---,0.00,167.00,VWS V14.01,2013-06-13 13:15:00,
2013-06-13 09:20:00,75.3,66.1,29.78,WNW,282,0.0,11.0,73,0.00,,---,0.00,125.00,VWS V14.01,2013-06-13 13:20:00,
2013-06-13 09:25:00,75.6,65.9,29.78,WSW,244,2.0,11.0,72,0.00,,---,0.00,186.00,VWS V14.01,2013-06-13 13:25:00,
2013-06-13 09:30:00,75.8,65.3,29.78,West,275,0.0,11.0,70,0.00,,---,0.00,144.00,VWS V14.01,2013-06-13 13:30:00,
2013-06-13 09:35:00,76.1,66.0,29.77,WSW,246,0.0,0.0,71,0.00,,---,0.00,155.00,VWS V14.01,2013-06-13 13:35:00,
2013-06-13 09:40:00,76.4,66.3,29.76,ENE,57,7.0,12.0,71,0.00,,---,0.00,167.00,VWS V14.01,2013-06-13 13:40:00,
2013-06-13 09:45:00,76.8,65.4,29.77,West,261,3.0,12.0,68,0.00,,---,0.00,434.00,VWS V14.01,2013-06-13 13:45:00,
2013-06-13 09:50:00,77.2,65.8,29.77,SW,230,0.0,12.0,68,0.00,,---,0.00,557.00,VWS V14.01,2013-06-13 13:50:00,
2013-06-13 09:55:00,77.6,66.6,29.77,West,274,0.0,12.0,69,0.00,,---,0.00,589.00,VWS V14.01,2013-06-13 13:55:00,
2013-06-13 10:00:00,78.1,66.7,29.77,NNW,329,0.0,12.0,68,0.00,,---,0.00,580.00,VWS V14.01,2013-06-13 14:00:00,
2013-06-13 10:05:00,78.6,66.3,29.77,West,264,4.0,4.0,66,0.00,,---,0.00,229.00,VWS V14.01,2013-06-13 14:05:00,
2013-06-13 10:10:00,78.6,66.3,29.76,NW,321,0.0,7.0,66,0.00,,---,0.00,188.00,VWS V14.01,2013-06-13 14:10:00,
2013-06-13 10:15:00,78.5,66.2,29.76,WSW,252,3.0,7.0,66,0.00,,---,0.00,218.00,VWS V14.01,2013-06-13 14:15:00,
2013-06-13 10:20:00,78.3,66.4,29.75,WSW,246,0.0,7.0,67,0.00,,---,0.00,172.00,VWS V14.01,2013-06-13 14:20:00,
2013-06-13 10:25:00,78.2,66.4,29.76,WSW,238,0.0,7.0,67,0.00,,---,0.00,162.00,VWS V14.01,2013-06-13 14:25:00,
2013-06-13 10:30:00,78.1,66.7,29.75,North,355,0.0,7.0,68,0.00,,---,0.00,657.00,VWS V14.01,2013-06-13 14:30:00,
2013-06-13 10:35:00,78.5,67.1,29.75,North,355,0.0,0.0,68,0.00,,---,0.00,684.00,VWS V14.01,2013-06-13 14:35:00,
2013-06-13 10:40:00,79.3,67.8,29.75,WSW,253,0.0,6.0,68,0.00,,---,0.00,691.00,VWS V14.01,2013-06-13 14:40:00,
2013-06-13 10:45:00,79.9,67.1,29.75,West,263,7.0,7.0,65,0.00,,---,0.00,684.00,VWS V14.01,2013-06-13 14:45:00,
2013-06-13 10:50:00,80.3,66.1,29.75,West,261,0.0,10.0,62,0.00,,---,0.00,747.00,VWS V14.01,2013-06-13 14:50:00,
2013-06-13 10:55:00,80.5,66.3,29.74,NNW,329,1.0,10.0,62,0.00,,---,0.00,737.00,VWS V14.01,2013-06-13 14:55:00,
2013-06-13 11:00:00,81.0,67.2,29.74,WSW,243,0.0,10.0,63,0.00,,---,0.00,687.00,VWS V14.01,2013-06-13 15:00:00,
2013-06-13 11:05:00,81.6,66.4,29.74,WSW,247,0.0,11.0,60,0.00,,---,0.00,775.00,VWS V14.01,2013-06-13 15:05:00,
2013-06-13 11:10:00,82.0,67.2,29.73,NE,34,0.0,11.0,61,0.00,,---,0.00,814.00,VWS V14.01,2013-06-13 15:10:00,
2013-06-13 11:15:00,82.7,67.4,29.73,NW,311,0.0,11.0,60,0.00,,---,0.00,777.00,VWS V14.01,2013-06-13 15:15:00,
2013-06-13 11:20:00,83.0,68.2,29.74,SW,236,1.0,11.0,61,0.00,,---,0.00,842.00,VWS V14.01,2013-06-13 15:20:00,
2013-06-13 11:25:00,83.3,67.5,29.73,WNW,289,1.0,11.0,59,0.00,,---,0.00,853.00,VWS V14.01,2013-06-13 15:25:00,
2013-06-13 11:30:00,83.7,68.8,29.73,WNW,294,0.0,11.0,61,0.00,,---,0.00,858.00,VWS V14.01,2013-06-13 15:30:00,
2013-06-13 11:35:00,84.1,68.2,29.73,NW,315,0.0,5.0,59,0.00,,---,0.00,863.00,VWS V14.01,2013-06-13 15:35:00,
2013-06-13 11:40:00,84.7,67.8,29.73,North,355,0.0,5.0,57,0.00,,---,0.00,874.00,VWS V14.01,2013-06-13 15:40:00,
2013-06-13 11:45:00,85.0,67.6,29.73,NW,326,0.0,7.0,56,0.00,,---,0.00,889.00,VWS V14.01,2013-06-13 15:45:00,
2013-06-13 11:50:00,85.1,67.7,29.73,West,275,2.0,10.0,56,0.00,,---,0.00,918.00,VWS V14.01,2013-06-13 15:50:00,
2013-06-13 11:55:00,85.0,68.6,29.73,WSW,250,2.0,10.0,58,0.00,,---,0.00,956.00,VWS V14.01,2013-06-13 15:55:00,
2013-06-13 12:00:00,84.9,66.9,29.72,West,268,0.0,11.0,55,0.00,,---,0.00,928.00,VWS V14.01,2013-06-13 16:00:00,
2013-06-13 12:05:00,84.9,67.5,29.72,NW,304,3.0,7.0,56,0.00,,---,0.00,928.00,VWS V14.01,2013-06-13 16:05:00,
2013-06-13 12:10:00,84.8,66.8,29.72,WNW,284,9.0,9.0,55,0.00,,---,0.00,969.00,VWS V14.01,2013-06-13 16:10:00,
2013-06-13 12:15:00,84.5,68.1,29.71,WSW,243,3.0,10.0,58,0.00,,---,0.00,1011.00,VWS V14.01,2013-06-13 16:15:00,
2013-06-13 12:20:00,84.5,67.1,29.71,SW,236,0.0,12.0,56,0.00,,---,0.00,998.00,VWS V14.01,2013-06-13 16:20:00,
2013-06-13 12:25:00,84.8,67.9,29.71,West,267,4.0,12.0,57,0.00,,---,0.00,1071.00,VWS V14.01,2013-06-13 16:25:00,
2013-06-13 12:30:00,84.9,67.5,29.71,WNW,288,2.0,12.0,56,0.00,,---,0.00,357.00,VWS V14.01,2013-06-13 16:30:00,
2013-06-13 12:35:00,84.3,66.9,29.71,SW,214,7.0,10.0,56,0.00,,---,0.00,257.00,VWS V14.01,2013-06-13 16:35:00,
2013-06-13 12:40:00,83.8,67.5,29.71,NNW,332,1.0,10.0,58,0.00,,---,0.00,332.00,VWS V14.01,2013-06-13 16:40:00,
2013-06-13 12:45:00,83.6,67.8,29.70,SE,145,0.0,10.0,59,0.00,,---,0.00,360.00,VWS V14.01,2013-06-13 16:45:00,
2013-06-13 12:50:00,83.4,67.6,29.70,WSW,252,0.0,14.0,59,0.00,,---,0.00,1065.00,VWS V14.01,2013-06-13 16:50:00,
2013-06-13 12:55:00,83.7,67.9,29.69,WSW,248,5.0,14.0,59,0.00,,---,0.00,972.00,VWS V14.01,2013-06-13 16:55:00,
2013-06-13 13:00:00,84.0,68.1,29.70,SW,217,5.0,14.0,59,0.00,,---,0.00,967.00,VWS V14.01,2013-06-13 17:00:00,
2013-06-13 13:05:00,84.2,68.3,29.69,WSW,252,0.0,9.0,59,0.00,,---,0.00,993.00,VWS V14.01,2013-06-13 17:05:00,
2013-06-13 13:10:00,84.6,68.2,29.69,North,355,0.0,9.0,58,0.00,,---,0.00,1104.00,VWS V14.01,2013-06-13 17:10:00,
2013-06-13 13:15:00,85.0,68.1,29.69,NE,56,4.0,10.0,57,0.00,,---,0.00,1130.00,VWS V14.01,2013-06-13 17:15:00,
2013-06-13 13:20:00,84.7,67.8,29.69,West,271,1.0,10.0,57,0.00,,---,0.00,318.00,VWS V14.01,2013-06-13 17:20:00,
2013-06-13 13:25:00,84.7,69.3,29.68,SSW,212,0.0,10.0,60,0.00,,---,0.00,1120.00,VWS V14.01,2013-06-13 17:25:00,
2013-06-13 13:30:00,84.7,68.3,29.68,WSW,245,5.0,16.0,58,0.00,,---,0.00,1048.00,VWS V14.01,2013-06-13 17:30:00,
2013-06-13 13:35:00,84.5,68.1,29.68,WNW,288,0.0,5.0,58,0.00,,---,0.00,279.00,VWS V14.01,2013-06-13 17:35:00,
2013-06-13 13:40:00,84.3,68.9,29.68,West,281,0.0,5.0,60,0.00,,---,0.00,1097.00,VWS V14.01,2013-06-13 17:40:00,
2013-06-13 13:45:00,84.4,69.0,29.68,West,269,5.0,5.0,60,0.00,,---,0.00,257.00,VWS V14.01,2013-06-13 17:45:00,
2013-06-13 13:50:00,84.3,68.4,29.69,West,277,3.0,7.0,59,0.00,,---,0.00,301.00,VWS V14.01,2013-06-13 17:50:00,
2013-06-13 13:55:00,84.0,68.6,29.69,WNW,302,1.0,7.0,60,0.00,,---,0.00,332.00,VWS V14.01,2013-06-13 17:55:00,
2013-06-13 14:00:00,83.7,68.3,29.69,NW,312,2.0,7.0,60,0.00,,---,0.00,165.00,VWS V14.01,2013-06-13 18:00:00,
2013-06-13 14:05:00,83.3,68.5,29.68,WNW,295,6.0,9.0,61,0.00,,---,0.00,193.00,VWS V14.01,2013-06-13 18:05:00,
2013-06-13 14:10:00,83.4,68.6,29.68,East,90,0.0,12.0,61,0.00,,---,0.00,485.00,VWS V14.01,2013-06-13 18:10:00,
2013-06-13 14:15:00,83.3,68.0,29.68,SW,232,0.0,12.0,60,0.00,,---,0.00,559.00,VWS V14.01,2013-06-13 18:15:00,
2013-06-13 14:20:00,83.0,67.7,29.69,West,281,0.0,12.0,60,0.00,,---,0.00,229.00,VWS V14.01,2013-06-13 18:20:00,
2013-06-13 14:26:00,82.7,68.4,29.68,WSW,244,0.0,12.0,62,0.00,,---,0.00,327.00,VWS V14.01,2013-06-13 18:26:00,
2013-06-13 14:30:00,82.3,68.0,29.66,NNW,347,3.0,12.0,62,0.00,,---,0.00,79.00,VWS V14.01,2013-06-13 18:30:00,
2013-06-13 14:31:00,82.5,68.2,29.67,SSE,163,2.0,12.0,62,0.00,,---,0.00,148.00,VWS V14.01,2013-06-13 18:31:00,
2013-06-13 14:36:00,82.0,67.7,29.67,West,259,3.0,9.0,62,0.00,,---,0.00,72.00,VWS V14.01,2013-06-13 18:36:00,
2013-06-13 14:41:00,81.0,64.8,29.71,WNW,285,11.0,14.0,58,0.00,,---,0.00,9.00,VWS V14.01,2013-06-13 18:41:00,
2013-06-13 14:45:00,78.5,63.0,29.69,WSW,254,14.0,14.0,59,0.00,,---,0.00,77.00,VWS V14.01,2013-06-13 18:45:00,
2013-06-13 14:50:00,76.1,62.2,29.70,WNW,296,1.0,14.0,62,0.00,,---,0.00,39.00,VWS V14.01,2013-06-13 18:50:00,
2013-06-13 14:55:00,74.4,63.2,29.69,WNW,284,0.0,14.0,68,0.00,,---,0.00,125.00,VWS V14.01,2013-06-13 18:55:00,
2013-06-13 15:00:00,72.9,63.0,29.70,West,267,2.0,14.0,71,0.00,,---,0.00,88.00,VWS V14.01,2013-06-13 19:00:00,
2013-06-13 15:05:00,71.8,63.1,29.71,WSW,256,2.0,6.0,74,0.00,,---,0.00,54.00,VWS V14.01,2013-06-13 19:05:00,
2013-06-13 15:10:00,71.4,63.8,29.72,WSW,254,12.0,12.0,77,0.00,,---,0.00,32.00,VWS V14.01,2013-06-13 19:10:00,
2013-06-13 15:16:00,71.5,62.8,29.70,West,259,12.0,22.0,74,0.01,,---,0.01,30.00,VWS V14.01,2013-06-13 19:16:00,
2013-06-13 15:21:00,70.9,63.0,29.69,West,277,0.0,22.0,76,0.01,,---,0.01,30.00,VWS V14.01,2013-06-13 19:21:00,
2013-06-13 15:26:00,70.5,62.6,29.69,West,281,0.0,22.0,76,0.01,,---,0.01,32.00,VWS V14.01,2013-06-13 19:26:00,
2013-06-13 15:30:00,70.1,62.6,29.68,West,271,0.0,22.0,77,0.01,,---,0.01,44.00,VWS V14.01,2013-06-13 19:30:00,
2013-06-13 15:31:00,70.1,62.2,29.68,West,271,0.0,22.0,76,0.01,,---,0.01,39.00,VWS V14.01,2013-06-13 19:31:00,
2013-06-13 15:36:00,70.0,62.8,29.67,SW,225,0.0,4.0,78,0.01,,---,0.01,49.00,VWS V14.01,2013-06-13 19:36:00,
2013-06-13 15:41:00,70.0,63.2,29.65,NW,308,1.0,4.0,79,0.01,,---,0.01,63.00,VWS V14.01,2013-06-13 19:41:00,
2013-06-13 15:46:00,70.1,63.3,29.67,NW,307,0.0,4.0,79,0.01,,---,0.01,93.00,VWS V14.01,2013-06-13 19:46:00,
2013-06-13 15:51:00,70.3,63.5,29.68,WNW,302,0.0,4.0,79,0.01,,---,0.01,62.00,VWS V14.01,2013-06-13 19:51:00,
2013-06-13 15:56:00,70.3,63.8,29.67,WNW,302,0.0,4.0,80,0.01,,---,0.01,93.00,VWS V14.01,2013-06-13 19:56:00,
2013-06-13 16:00:00,70.1,63.7,29.68,West,280,0.0,4.0,80,0.01,,---,0.01,77.00,VWS V14.01,2013-06-13 20:00:00,
2013-06-13 16:01:00,70.1,63.7,29.68,NNW,338,0.0,4.0,80,0.01,,---,0.01,39.00,VWS V14.01,2013-06-13 20:01:00,
2013-06-13 16:06:00,69.9,63.8,29.68,WNW,294,2.0,7.0,81,0.01,,---,0.01,44.00,VWS V14.01,2013-06-13 20:06:00,
2013-06-13 16:11:00,69.9,64.2,29.68,WNW,285,0.0,7.0,82,0.01,,---,0.01,88.00,VWS V14.01,2013-06-13 20:11:00,
2013-06-13 16:16:00,70.0,64.6,29.69,NW,304,0.0,7.0,83,0.01,,---,0.01,100.00,VWS V14.01,2013-06-13 20:16:00,
2013-06-13 16:21:00,70.0,64.9,29.68,WNW,288,4.0,7.0,84,0.01,,---,0.01,77.00,VWS V14.01,2013-06-13 20:21:00,
2013-06-13 16:26:00,70.0,64.9,29.68,WSW,252,4.0,7.0,84,0.01,,---,0.01,47.00,VWS V14.01,2013-06-13 20:26:00,
2013-06-13 16:30:00,69.9,64.5,29.68,NW,304,5.0,8.0,83,0.01,,---,0.01,62.00,VWS V14.01,2013-06-13 20:30:00,
2013-06-13 16:31:00,69.9,64.5,29.68,WSW,257,5.0,7.0,83,0.01,,---,0.01,25.00,VWS V14.01,2013-06-13 20:31:00,
2013-06-13 16:36:00,69.8,64.4,29.68,WNW,294,4.0,7.0,83,0.00,,---,0.01,90.00,VWS V14.01,2013-06-13 20:36:00,
2013-06-13 16:41:00,69.7,64.3,29.68,NNW,330,0.0,7.0,83,0.00,,---,0.01,93.00,VWS V14.01,2013-06-13 20:41:00,
2013-06-13 16:46:00,69.6,63.5,29.67,NNW,347,0.0,13.0,81,0.00,,---,0.01,97.00,VWS V14.01,2013-06-13 20:46:00,
2013-06-13 16:51:00,69.6,63.5,29.68,West,278,5.0,13.0,81,0.00,,---,0.01,76.00,VWS V14.01,2013-06-13 20:51:00,
2013-06-13 16:56:00,69.6,63.2,29.69,West,280,0.0,13.0,80,0.00,,---,0.01,76.00,VWS V14.01,2013-06-13 20:56:00,
2013-06-13 17:00:00,69.5,62.7,29.70,West,259,5.0,13.0,79,0.00,,---,0.01,70.00,VWS V14.01,2013-06-13 21:00:00,
2013-06-13 17:01:00,69.5,63.1,29.69,WNW,296,0.0,13.0,80,0.00,,---,0.01,70.00,VWS V14.01,2013-06-13 21:01:00,
2013-06-13 17:06:00,69.5,62.7,29.69,NNW,346,5.0,10.0,79,0.00,,---,0.01,69.00,VWS V14.01,2013-06-13 21:06:00,
2013-06-13 17:11:00,69.4,62.6,29.70,WNW,286,1.0,10.0,79,0.00,,---,0.01,69.00,VWS V14.01,2013-06-13 21:11:00,
2013-06-13 17:16:00,69.3,62.5,29.70,West,279,0.0,10.0,79,0.00,,---,0.01,72.00,VWS V14.01,2013-06-13 21:16:00,
2013-06-13 17:21:00,69.2,62.8,29.71,SW,229,0.0,10.0,80,0.00,,---,0.01,74.00,VWS V14.01,2013-06-13 21:21:00,
2013-06-13 17:26:00,69.0,62.6,29.71,SW,235,0.0,10.0,80,0.00,,---,0.01,83.00,VWS V14.01,2013-06-13 21:26:00,
2013-06-13 17:30:00,68.9,62.1,29.71,WNW,291,1.0,10.0,79,0.00,,---,0.01,113.00,VWS V14.01,2013-06-13 21:30:00,
2013-06-13 17:31:00,68.9,62.5,29.71,WSW,258,7.0,10.0,80,0.00,,---,0.01,102.00,VWS V14.01,2013-06-13 21:31:00,
2013-06-13 17:36:00,68.8,62.4,29.71,West,273,6.0,9.0,80,0.00,,---,0.01,130.00,VWS V14.01,2013-06-13 21:36:00,
2013-06-13 17:41:00,68.7,61.9,29.70,NW,307,0.0,9.0,79,0.00,,---,0.01,141.00,VWS V14.01,2013-06-13 21:41:00,
2013-06-13 17:46:00,68.8,61.7,29.70,West,274,0.0,10.0,78,0.00,,---,0.01,162.00,VWS V14.01,2013-06-13 21:46:00,
2013-06-13 17:51:00,68.8,61.7,29.69,NW,313,0.0,10.0,78,0.00,,---,0.01,176.00,VWS V14.01,2013-06-13 21:51:00,
2013-06-13 17:56:00,68.9,61.4,29.69,WNW,288,0.0,10.0,77,0.00,,---,0.01,167.00,VWS V14.01,2013-06-13 21:56:00,
2013-06-13 18:00:00,68.9,61.4,29.69,WNW,302,4.0,10.0,77,0.00,,---,0.01,141.00,VWS V14.01,2013-06-13 22:00:00,
2013-06-13 18:01:00,68.9,61.4,29.68,WNW,302,2.0,10.0,77,0.00,,---,0.01,144.00,VWS V14.01,2013-06-13 22:01:00,
2013-06-13 18:06:00,68.9,61.8,29.69,WNW,289,5.0,6.0,78,0.00,,---,0.01,132.00,VWS V14.01,2013-06-13 22:06:00,
2013-06-13 18:11:00,68.9,61.4,29.69,West,280,2.0,11.0,77,0.00,,---,0.01,116.00,VWS V14.01,2013-06-13 22:11:00,
2013-06-13 18:16:00,68.9,61.8,29.68,WNW,287,0.0,11.0,78,0.00,,---,0.01,121.00,VWS V14.01,2013-06-13 22:16:00,
2013-06-13 18:21:00,68.9,61.8,29.68,West,261,5.0,11.0,78,0.00,,---,0.01,132.00,VWS V14.01,2013-06-13 22:21:00,
2013-06-13 18:26:00,68.9,61.8,29.69,WSW,240,1.0,11.0,78,0.00,,---,0.01,135.00,VWS V14.01,2013-06-13 22:26:00,
2013-06-13 18:30:00,69.0,61.9,29.68,WNW,303,0.0,11.0,78,0.00,,---,0.01,109.00,VWS V14.01,2013-06-13 22:30:00,
2013-06-13 18:31:00,69.0,61.9,29.69,WSW,255,0.0,11.0,78,0.00,,---,0.01,95.00,VWS V14.01,2013-06-13 22:31:00,
2013-06-13 18:36:00,69.0,61.9,29.68,NW,324,1.0,5.0,78,0.00,,---,0.01,98.00,VWS V14.01,2013-06-13 22:36:00,
2013-06-13 18:41:00,69.0,61.9,29.69,WNW,290,0.0,6.0,78,0.00,,---,0.01,107.00,VWS V14.01,2013-06-13 22:41:00,
2013-06-13 18:46:00,69.0,61.9,29.69,SW,224,3.0,9.0,78,0.00,,---,0.01,105.00,VWS V14.01,2013-06-13 22:46:00,
2013-06-13 18:51:00,69.0,62.2,29.69,West,267,4.0,9.0,79,0.00,,---,0.01,90.00,VWS V14.01,2013-06-13 22:51:00,
2013-06-13 18:56:00,68.9,62.1,29.69,North,9,0.0,9.0,79,0.00,,---,0.01,86.00,VWS V14.01,2013-06-13 22:56:00,
2013-06-13 19:00:00,68.8,62.0,29.70,WNW,297,2.0,10.0,79,0.00,,---,0.01,84.00,VWS V14.01,2013-06-13 23:00:00,
2013-06-13 19:01:00,68.8,62.0,29.70,WNW,291,0.0,10.0,79,0.00,,---,0.01,86.00,VWS V14.01,2013-06-13 23:01:00,
2013-06-13 19:06:00,68.7,61.9,29.70,NW,308,4.0,9.0,79,0.00,,---,0.01,79.00,VWS V14.01,2013-06-13 23:06:00,
2013-06-13 19:11:00,68.7,62.3,29.70,WNW,287,0.0,9.0,80,0.00,,---,0.01,74.00,VWS V14.01,2013-06-13 23:11:00,
2013-06-13 19:16:00,68.7,62.3,29.71,NW,310,0.0,9.0,80,0.00,,---,0.01,83.00,VWS V14.01,2013-06-13 23:16:00,
2013-06-13 19:21:00,68.7,62.3,29.71,NW,320,2.0,9.0,80,0.00,,---,0.01,53.00,VWS V14.01,2013-06-13 23:21:00,
2013-06-13 19:26:00,68.7,62.3,29.72,WNW,296,0.0,9.0,80,0.00,,---,0.01,90.00,VWS V14.01,2013-06-13 23:26:00,
2013-06-13 19:30:00,68.7,62.3,29.72,WNW,295,0.0,9.0,80,0.00,,---,0.01,44.00,VWS V14.01,2013-06-13 23:30:00,
2013-06-13 19:31:00,68.7,62.3,29.72,WNW,300,4.0,9.0,80,0.00,,---,0.01,51.00,VWS V14.01,2013-06-13 23:31:00,
2013-06-13 19:36:00,68.7,62.3,29.72,WNW,292,0.0,3.0,80,0.00,,---,0.01,35.00,VWS V14.01,2013-06-13 23:36:00,
2013-06-13 19:41:00,68.6,62.2,29.72,West,277,0.0,7.0,80,0.00,,---,0.01,44.00,VWS V14.01,2013-06-13 23:41:00,
2013-06-13 19:46:00,68.6,61.8,29.73,WNW,301,3.0,7.0,79,0.00,,---,0.01,28.00,VWS V14.01,2013-06-13 23:46:00,
2013-06-13 19:51:00,68.7,61.6,29.72,WNW,286,6.0,9.0,78,0.00,,---,0.01,19.00,VWS V14.01,2013-06-13 23:51:00,
2013-06-13 19:56:00,68.7,61.6,29.73,NW,309,1.0,9.0,78,0.00,,---,0.01,18.00,VWS V14.01,2013-06-13 23:56:00,
2013-06-13 20:00:00,68.6,61.5,29.72,West,269,0.0,9.0,78,0.00,,---,0.01,12.00,VWS V14.01,2013-06-14 00:00:00,
2013-06-13 20:01:00,68.7,61.6,29.72,WNW,300,0.0,9.0,78,0.00,,---,0.01,16.00,VWS V14.01,2013-06-14 00:01:00,
2013-06-13 20:06:00,68.5,61.4,29.72,West,274,0.0,5.0,78,0.00,,---,0.01,16.00,VWS V14.01,2013-06-14 00:06:00,
2013-06-13 20:11:00,68.4,61.6,29.72,WNW,292,0.0,5.0,79,0.00,,---,0.01,14.00,VWS V14.01,2013-06-14 00:11:00,
2013-06-13 20:16:00,68.2,61.5,29.72,West,260,0.0,6.0,79,0.00,,---,0.01,11.00,VWS V14.01,2013-06-14 00:16:00,
2013-06-13 20:21:00,68.0,61.2,29.73,NW,305,0.0,6.0,79,0.00,,---,0.01,9.00,VWS V14.01,2013-06-14 00:21:00,
2013-06-13 20:26:00,67.8,61.4,29.72,WNW,294,1.0,6.0,80,0.00,,---,0.01,7.00,VWS V14.01,2013-06-14 00:26:00,
2013-06-13 20:30:00,67.5,61.1,29.72,SW,223,0.0,6.0,80,0.00,,---,0.01,5.00,VWS V14.01,2013-06-14 00:30:00,
2013-06-13 20:31:00,67.6,61.2,29.72,West,270,3.0,6.0,80,0.00,,---,0.01,5.00,VWS V14.01,2013-06-14 00:31:00,
2013-06-13 20:36:00,67.4,61.0,29.72,WNW,298,2.0,6.0,80,0.00,,---,0.01,0.00,VWS V14.01,2013-06-14 00:36:00,
2013-06-13 20:41:00,67.2,60.8,29.72,West,273,5.0,7.0,80,0.00,,---,0.01,0.00,VWS V14.01,2013-06-14 00:41:00,
2013-06-13 20:46:00,67.2,60.8,29.72,WNW,303,4.0,7.0,80,0.00,,---,0.01,0.00,VWS V14.01,2013-06-14 00:46:00,
2013-06-13 20:51:00,67.1,60.7,29.72,NNW,344,0.0,7.0,80,0.00,,---,0.01,0.00,VWS V14.01,2013-06-14 00:51:00,
2013-06-13 20:56:00,67.1,60.7,29.73,NW,317,0.0,7.0,80,0.00,,---,0.01,0.00,VWS V14.01,2013-06-14 00:56:00,
2013-06-13 21:00:00,67.1,61.1,29.72,NW,325,0.0,7.0,81,0.00,,---,0.01,0.00,VWS V14.01,2013-06-14 01:00:00,
2013-06-13 21:01:00,67.1,61.1,29.72,NW,308,0.0,7.0,81,0.00,,---,0.01,0.00,VWS V14.01,2013-06-14 01:01:00,
2013-06-13 21:06:00,67.0,60.6,29.73,NW,305,0.0,4.0,80,0.00,,---,0.01,0.00,VWS V14.01,2013-06-14 01:06:00,
2013-06-13 21:11:00,67.0,61.0,29.73,West,265,4.0,5.0,81,0.00,,---,0.01,0.00,VWS V14.01,2013-06-14 01:11:00,
2013-06-13 21:16:00,67.0,61.0,29.73,WNW,282,0.0,5.0,81,0.00,,---,0.01,0.00,VWS V14.01,2013-06-14 01:16:00,
2013-06-13 21:21:00,67.0,60.6,29.74,WNW,284,0.0,7.0,80,0.00,,---,0.01,0.00,VWS V14.01,2013-06-14 01:21:00,
2013-06-13 21:26:00,67.0,60.6,29.74,WSW,247,0.0,7.0,80,0.00,,---,0.01,0.00,VWS V14.01,2013-06-14 01:26:00,
2013-06-13 21:30:00,67.0,60.6,29.74,NW,304,0.0,7.0,80,0.00,,---,0.01,0.00,VWS V14.01,2013-06-14 01:30:00,
2013-06-13 21:31:00,67.0,60.6,29.74,WNW,301,1.0,7.0,80,0.00,,---,0.01,0.00,VWS V14.01,2013-06-14 01:31:00,
2013-06-13 21:36:00,66.9,60.5,29.74,NW,319,0.0,5.0,80,0.00,,---,0.01,0.00,VWS V14.01,2013-06-14 01:36:00,
2013-06-13 21:41:00,66.8,60.8,29.75,NW,306,0.0,5.0,81,0.00,,---,0.01,0.00,VWS V14.01,2013-06-14 01:41:00,
2013-06-13 21:46:00,66.7,60.7,29.75,NW,309,0.0,5.0,81,0.00,,---,0.01,0.00,VWS V14.01,2013-06-14 01:46:00,
2013-06-13 21:51:00,66.6,60.6,29.75,WNW,301,1.0,5.0,81,0.00,,---,0.01,0.00,VWS V14.01,2013-06-14 01:51:00,
2013-06-13 21:56:00,66.5,60.5,29.75,NW,306,4.0,5.0,81,0.00,,---,0.01,0.00,VWS V14.01,2013-06-14 01:56:00,
2013-06-13 22:00:00,66.4,60.4,29.75,NW,309,0.0,5.0,81,0.00,,---,0.01,0.00,VWS V14.01,2013-06-14 02:00:00,
2013-06-13 22:01:00,66.4,60.4,29.75,WNW,301,0.0,5.0,81,0.00,,---,0.01,0.00,VWS V14.01,2013-06-14 02:01:00,
2013-06-13 22:06:00,66.3,60.3,29.76,WNW,294,0.0,1.0,81,0.00,,---,0.01,0.00,VWS V14.01,2013-06-14 02:06:00,
2013-06-13 22:11:00,66.3,60.3,29.76,WNW,303,0.0,2.0,81,0.00,,---,0.01,0.00,VWS V14.01,2013-06-14 02:11:00,
2013-06-13 22:16:00,66.3,60.3,29.77,NW,308,0.0,2.0,81,0.00,,---,0.01,0.00,VWS V14.01,2013-06-14 02:16:00,
2013-06-13 22:21:00,66.2,60.2,29.77,NW,311,0.0,3.0,81,0.00,,---,0.01,0.00,VWS V14.01,2013-06-14 02:21:00,
2013-06-13 22:26:00,66.0,59.0,29.78,West,280,0.0,5.0,78,0.00,,---,0.01,0.00,VWS V14.01,2013-06-14 02:26:00,
2013-06-13 22:30:00,65.8,58.0,29.78,WNW,295,0.0,5.0,76,0.00,,---,0.01,0.00,VWS V14.01,2013-06-14 02:30:00,
2013-06-13 22:31:00,65.8,58.0,29.78,WNW,294,4.0,5.0,76,0.00,,---,0.01,0.00,VWS V14.01,2013-06-14 02:31:00,
2013-06-13 22:36:00,65.7,57.9,29.78,WNW,303,0.0,5.0,76,0.00,,---,0.01,0.00,VWS V14.01,2013-06-14 02:36:00,
2013-06-13 22:41:00,65.6,57.8,29.79,WNW,301,2.0,6.0,76,0.00,,---,0.01,0.00,VWS V14.01,2013-06-14 02:41:00,
2013-06-13 22:46:00,65.4,57.7,29.78,West,281,1.0,6.0,76,0.00,,---,0.01,0.00,VWS V14.01,2013-06-14 02:46:00,
2013-06-13 22:51:00,65.3,57.5,29.79,NW,319,0.0,6.0,76,0.00,,---,0.01,0.00,VWS V14.01,2013-06-14 02:51:00,
2013-06-13 22:56:00,65.2,57.5,29.78,NW,312,0.0,6.0,76,0.00,,---,0.01,0.00,VWS V14.01,2013-06-14 02:56:00,
2013-06-13 23:00:00,65.0,57.3,29.79,WSW,238,2.0,6.0,76,0.00,,---,0.01,0.00,VWS V14.01,2013-06-14 03:00:00,
2013-06-13 23:01:00,65.0,57.6,29.79,NW,307,3.0,6.0,77,0.00,,---,0.01,0.00,VWS V14.01,2013-06-14 03:01:00,
2013-06-13 23:06:00,64.8,57.1,29.79,WNW,287,2.0,5.0,76,0.00,,---,0.01,0.00,VWS V14.01,2013-06-14 03:06:00,
2013-06-13 23:11:00,64.6,56.9,29.79,WNW,297,0.0,6.0,76,0.00,,---,0.01,0.00,VWS V14.01,2013-06-14 03:11:00,
2013-06-13 23:16:00,64.4,56.3,29.80,NW,305,0.0,6.0,75,0.00,,---,0.01,0.00,VWS V14.01,2013-06-14 03:16:00,
2013-06-13 23:21:00,64.2,56.1,29.80,WNW,296,0.0,6.0,75,0.00,,---,0.01,0.00,VWS V14.01,2013-06-14 03:21:00,
2013-06-13 23:26:00,64.0,56.3,29.81,WNW,298,3.0,6.0,76,0.00,,---,0.01,0.00,VWS V14.01,2013-06-14 03:26:00,
2013-06-13 23:30:00,63.7,55.6,29.81,WNW,289,0.0,6.0,75,0.00,,---,0.01,0.00,VWS V14.01,2013-06-14 03:30:00,
2013-06-13 23:31:00,63.8,55.7,29.81,NW,305,0.0,6.0,75,0.00,,---,0.01,0.00,VWS V14.01,2013-06-14 03:31:00,
2013-06-13 23:36:00,63.6,55.5,29.81,WNW,298,0.0,2.0,75,0.00,,---,0.01,0.00,VWS V14.01,2013-06-14 03:36:00,
2013-06-13 23:41:00,63.4,55.3,29.81,NW,308,0.0,2.0,75,0.00,,---,0.01,0.00,VWS V14.01,2013-06-14 03:41:00,
2013-06-13 23:46:00,63.2,55.2,29.81,WNW,303,0.0,2.0,75,0.00,,---,0.01,0.00,VWS V14.01,2013-06-14 03:46:00,
2013-06-13 23:51:00,63.0,55.0,29.81,WNW,303,0.0,2.0,75,0.00,,---,0.01,0.00,VWS V14.01,2013-06-14 03:51:00,
2013-06-13 23:56:00,62.8,54.4,29.81,NW,308,0.0,4.0,74,0.00,,---,0.01,0.00,VWS V14.01,2013-06-14 03:56:00,